Effective Sunday, March 17, 2024, the National Weather Service National Data Buoy Center will discontinue its Dial-A-Buoy Interactive Voice Response system. For more information, see Service Change Notice 24-06 (PDF).

Station 44013 (LLNR 420) - BOSTON 16 NM East of Boston, MA Image indicating link to RSS feed of recent meteorological observations for station 44013

Boston Approach Lighted Buoy BF NOAA 44013


Conditions at 44013 as of
(2:00 am EST)
0700 GMT on 02/23/2024:
     

Click on the graph icon in the table below to see a time series plot of the last five days of that observation.

5-day plot - Wind Direction Wind Direction (WDIR): S ( 190 deg true )
5-day plot - Wind Speed Wind Speed (WSPD): 9.7 kts
5-day plot - Wind Gust Wind Gust (GST): 11.7 kts
5-day plot - Atmospheric Pressure Atmospheric Pressure (PRES):29.67 in
5-day plot - Pressure Tendency Pressure Tendency (PTDY):-0.07 in ( Falling )
5-day plot - Air Temperature Air Temperature (ATMP): 37.9 °F
5-day plot - Water Temperature Water Temperature (WTMP): 39.7 °F
5-day plot - Dew Point Dew Point (DEWP): 35.6 °F
5-day plot - Wind Chill Wind Chill (CHILL): 30.6 °F
5-day plot - Wind Speed at 10 Meters Wind Speed at 10 meters (WSPD10M): 9.7 kts
5-day plot - Wind Speed at 20 Meters Wind Speed at 20 meters (WSPD20M): 11.7 kts
5-day plot -  Wind Speed, Wind Gust and Atmospheric Pressure Combined plot of Wind Speed, Gust, and Air Pressure
Supplemental Measurements
Highest 1-minute Wind Speed
Time (EST)5-day plot - 1-Minute Wind Speed WSPD 5-day plot - 1-Minute Wind Direction WDIR
1:54 am 9.7 kts-
Previous observations
TIME
(EST)
5-day plot - Wind Direction
WDIR
 
5-day plot - Wind Speed
WSPD
kts
5-day plot - Wind Gust
GST
kts
5-day plot - Wave Height
WVHT
ft
5-day plot - Dominant Wave Period
DPD
sec
5-day plot - Average Wave Period
APD
sec
5-day plot - Mean Wave Direction
MWD
 
5-day plot - Atmospheric Pressure
PRES
in
5-day plot - Pressure Tendency
PTDY
in
5-day plot - Air Temperature
ATMP
°F
5-day plot - Water Temperature
WTMP
°F
5-day plot - Dew Point
DEWP
°F
5-day plot - Salinity
SAL
psu
5-day plot - Visibility
VIS
nmi
5-day plot - Tide (above MLLW)
TIDE
ft
2024-02-23 01:50 am S 11.7 15.5 5.6 126.5 E29.68- 37.8 39.7 35.2---
2024-02-23 01:40 am S 11.7 15.5 5.6-6.5 E29.68- 37.6 39.7 35.1---
2024-02-23 01:30 am S 11.7 15.5----29.69- 37.6 39.7 35.1---
2024-02-23 01:20 amSSW 11.7 15.5 5.9 136.5 E29.69- 37.6 39.7 35.1---
2024-02-23 01:10 amSSW 13.6 15.5 5.9-6.5 E29.70- 37.6 39.7 35.1---
2024-02-23 01:00 amSSW 11.7 15.5----29.70-0.06 37.6- 35.2---
2024-02-23 12:50 amSSW 11.7 15.5 5.6 126.3 E29.70- 37.6 39.7 35.1---
2024-02-23 12:40 amSSW 11.7 15.5----29.71- 37.4 39.7 35.1---
2024-02-23 12:30 amSSW 11.7 15.5----29.72- 37.2 39.7 34.9---
2024-02-23 12:20 amSSW 11.7 13.6 5.2 106.3 E29.72- 37.2 39.7 34.5---
2024-02-23 12:10 amSSW 11.7 17.5 5.2-6.3 E29.72- 37.2 39.6 34.3---
2024-02-23 12:00 amSSW 11.7 15.5----29.73-0.05 37.2 39.6 34.5---
2024-02-22 11:50 pmSSW 11.7 15.5 5.2 116.3 E29.73- 36.9 39.6 34.0---
2024-02-22 11:40 pmSSW 11.7 15.5 5.2-6.3 E29.73- 36.9 39.6 34.0---
2024-02-22 11:30 pmSSW 11.7 15.5----29.74- 36.7 39.6 33.8---
2024-02-22 11:20 pmSSW 11.7 15.5 5.2 116.1 E29.73- 36.5 39.6 33.6---
2024-02-22 11:10 pmSSW 13.6 15.5 5.2-6.1 E29.74- 36.5 39.6 33.4---
2024-02-22 11:00 pmSSW 11.7 15.5----29.74-0.05 36.5 39.6 33.3---
2024-02-22 10:50 pmSSW 13.6 15.5 5.6 106.2 E29.75- 36.5 39.6 33.1---
2024-02-22 10:40 pmSSW 13.6 17.5 5.6-6.2 E29.75- 36.5 39.6 32.9---
2024-02-22 10:30 pmSSW 13.6 17.5----29.76- 36.5 39.6 32.7---
2024-02-22 10:20 pmSSW 13.6 17.5 5.2 116.1ENE29.76- 36.5 39.6 32.5---
2024-02-22 10:10 pmSSW 13.6 17.5 5.2-6.1ENE29.76- 36.3 39.6 32.2---
2024-02-22 10:00 pmSSW 13.6 17.5----29.77-0.04 36.1 39.6 32.0---
2024-02-22 09:50 pmSSW 13.6 17.5 5.6 116.1 E29.77- 36.1 39.6 31.8---
2024-02-22 09:40 pmSSW 13.6 19.4----29.77- 36.1 39.6 31.8---
2024-02-22 09:30 pm SW 15.5 19.4----29.78- 36.0 39.6 31.6---
2024-02-22 09:20 pmSSW 13.6 17.5 5.6 95.9 E29.77- 36.0 39.6 31.6---
2024-02-22 09:10 pmSSW 15.5 19.4 5.6-5.9 E29.78- 36.0 39.6 31.6---
2024-02-22 09:00 pmSSW 15.5 19.4----29.78-0.04 36.0 39.6 31.5---
2024-02-22 08:50 pmSSW 15.5 19.4 5.6 115.9 E29.79- 36.1 39.6 31.6---
2024-02-22 08:40 pmSSW 15.5 21.4 5.6-5.9 E29.79- 36.1 39.6 31.5---
2024-02-22 08:30 pmSSW 15.5 19.4----29.78- 36.1 39.6 31.1---
2024-02-22 08:20 pmSSW 15.5 19.4 5.9 126.1 E29.79- 36.3 39.6 31.3---
2024-02-22 08:10 pmSSW 15.5 19.4 5.9-6.1 E29.79- 36.3 39.6 30.9---
2024-02-22 08:00 pmSSW 15.5 19.4----29.79-0.04 36.3 39.6 30.7---
2024-02-22 07:50 pm S 15.5 17.5 5.6 125.5 E29.79- 36.5 39.6 30.6---
2024-02-22 07:40 pmSSW 17.5 19.4----29.79- 36.7 39.7 30.6---
2024-02-22 07:30 pmSSW 15.5 17.5----29.80- 37.0 39.6 30.4---
2024-02-22 07:20 pmSSW 15.5 17.5 5.2 115.6ESE29.80- 37.2 39.6 30.4---
2024-02-22 07:10 pmSSW 15.5 17.5 5.2-5.6ESE29.81- 37.4 39.6 30.0---
2024-02-22 07:00 pmSSW 15.5 19.4----29.81-0.05 37.6 39.6 30.2---
2024-02-22 06:50 pmSSW 15.5 17.5 4.6 105.4 E29.81- 37.8 39.6 29.8---
2024-02-22 06:40 pmSSW 13.6 17.5----29.82- 37.9 39.6 29.8---
2024-02-22 06:20 pmSSW 13.6 17.5 5.2 105.7 E29.82- 38.5 39.6 30.4---
2024-02-22 06:10 pmSSW 13.6 15.5 5.2-5.7 E29.82- 38.8 39.6 30.2---
2024-02-22 06:00 pmSSW 11.7 15.5----29.82-0.06 39.2 39.6 30.2---
2024-02-22 05:50 pmSSW 13.6 15.5 4.9 105.3 E29.82- 39.2 39.6 30.7---
2024-02-22 05:40 pmSSW 13.6 15.5----29.82- 39.6 39.6 30.9---
2024-02-22 05:30 pmSSW 11.7 13.6----29.82- 39.6 39.6 31.6---
2024-02-22 05:20 pmSSE 13.6 17.5 4.6 105.2 E29.83- 38.5 39.7 32.7---
2024-02-22 05:10 pmSSE 13.6 17.5----29.82- 38.1 39.7 32.0---
2024-02-22 05:00 pmSSE 13.6 17.5----29.82-0.09 37.9 39.7 31.6---
2024-02-22 04:50 pmSSE 13.6 17.5 4.6 115.0 E29.83- 37.8- 31.3---
2024-02-22 04:40 pmSSE 15.5 19.4----29.83- 37.8 39.7 30.6---
2024-02-22 04:30 pmSSE 15.5 17.5----29.84- 37.8 39.7 30.4---
2024-02-22 04:20 pmSSE 15.5 19.4 4.6 115.1 E29.84- 37.6 39.7 30.0---
2024-02-22 04:10 pm S 15.5 17.5----29.85- 37.9 39.7 30.4---
2024-02-22 04:00 pmSSE 13.6 17.5----29.85-0.09 38.1 39.7 30.2---
2024-02-22 03:50 pmSSE 11.7 15.5 4.6 85.0ESE29.85- 37.9 39.7 30.0---
2024-02-22 03:40 pmSSE 15.5 17.5----29.85- 37.4 39.7 30.0---
2024-02-22 03:30 pmSSE 15.5 17.5----29.85- 36.9 39.7 30.6---
2024-02-22 03:20 pm SE 15.5 17.5 3.9 85.0 E29.86- 36.3 39.7 30.2---
2024-02-22 03:10 pm SE 15.5 19.4 3.9-5.0 E29.86- 36.0 39.9 29.8---
2024-02-22 03:00 pm SE 13.6 19.4----29.87-0.10 35.6 39.9 29.3---
2024-02-22 02:50 pmSSE 13.6 15.5 3.9 85.3ESE29.88- 35.4 39.9 28.9---
2024-02-22 02:40 pmSSE 11.7 15.5----29.89- 35.1 39.9 28.2---
2024-02-22 02:30 pmSSE 11.7 13.6----29.89- 34.7 39.9 28.0---
2024-02-22 02:20 pm SE 9.7 11.7 3.6 95.5 E29.90- 34.7 39.9 27.9---
2024-02-22 02:10 pm SE 11.7 13.6 3.6-5.5 E29.91- 34.3 39.9 27.5---
2024-02-22 02:00 pm SE 11.7 13.6----29.91-0.11 34.5 40.1 27.7---
2024-02-22 01:50 pm SE 9.7 13.6 3.3 145.5ENE29.91- 34.3 40.1 27.5---
2024-02-22 01:40 pm SE 9.7 11.7----29.91- 34.2 40.1 27.5---
2024-02-22 01:30 pm SE 9.7 11.7----29.92- 34.0 40.1 27.0---
2024-02-22 01:20 pm SE 7.8 11.7 3.3 86.0 E29.92- 33.8 40.1 27.0---
2024-02-22 01:10 pmSSE 7.8 9.7----29.93- 33.6 40.1 26.4---
2024-02-22 01:00 pm SE 7.8 9.7 3.3-6.0 E29.94-0.13 33.4 40.1 26.2---
2024-02-22 12:50 pmSSE 7.8 9.7 3.0 76.0 E29.94- 33.3 40.1 26.2---
2024-02-22 12:40 pm SE 7.8 9.7----29.94- 33.3 40.1 26.4---
2024-02-22 12:30 pmSSE 7.8 9.7----29.96- 33.1 39.9 26.1---
2024-02-22 12:20 pm SE 9.7 11.7 2.6 65.7 E29.96- 32.9 39.9 25.9---
2024-02-22 12:10 pm SE 9.7 11.7 2.6-5.7 E29.96- 32.9 39.9 25.9---
2024-02-22 12:00 pmSSE 7.8 11.7----29.97-0.12 33.1 39.9 25.9---
2024-02-22 11:50 amSSE 5.8 7.8 3.0 65.6 E29.98- 32.9 39.9 25.5---
2024-02-22 11:40 am S 7.8 9.7----30.00- 32.7 39.9 25.0---
2024-02-22 11:30 amSSE 7.8 9.7----30.00- 32.9 39.9 25.5---
2024-02-22 11:20 amSSE 7.8 9.7 2.6 65.2ESE30.00- 32.5 39.9 25.2---
2024-02-22 11:10 amSSE 7.8 11.7 2.6-5.2ESE30.01- 32.5 39.9 25.2---
2024-02-22 11:00 am S 7.8 9.7----30.02-0.10 32.5 39.9 25.2---
2024-02-22 10:50 am S 7.8 9.7 3.0 65.1 E30.02- 32.4 39.9 25.0---
2024-02-22 10:40 am S 5.8 9.7----30.03- 32.4 39.9 25.0---
2024-02-22 10:30 am S 5.8 7.8----30.03- 32.4 39.7 24.6---
2024-02-22 10:20 am S 7.8 9.7 2.6 65.0 E30.04- 32.5 39.7 25.2---
2024-02-22 10:10 am S 5.8 7.8 2.6-5.0 E30.05- 32.2 39.7 25.0---
2024-02-22 10:00 amSSW 5.8 7.8----30.06-0.06 32.2 39.7 24.8---
2024-02-22 09:50 amSSW 3.9 7.8 2.6 65.0 E30.07- 32.2 39.7 25.0---
2024-02-22 09:40 am S 5.8 7.8----30.07- 32.0 39.7 24.6---
2024-02-22 09:30 amSSW 5.8 7.8----30.09- 32.2 39.7 25.2---
2024-02-22 09:20 amSSW 5.8 5.8 2.6 64.9 E30.09- 32.2 39.7 25.0---
2024-02-22 09:10 amSSE 3.9 5.8 2.6-4.9 E30.09- 32.2 39.7 24.3---
2024-02-22 09:00 am S 3.9 7.8----30.09-0.04 32.2 39.7 24.8---
2024-02-22 08:50 amSSE 5.8 9.7 2.6 64.7 E30.10- 32.0 39.7 24.6---
2024-02-22 08:40 amSSE 7.8 9.7----30.10- 32.4 39.6 25.2---
2024-02-22 08:30 am S 5.8 7.8----30.10- 32.2 39.6 25.2---
2024-02-22 08:20 amSSW 5.8 7.8 2.6 64.9 E30.10- 32.0 39.6 24.8---
2024-02-22 08:10 am SW 5.8 7.8 2.6-4.9 E30.11- 32.0 39.6 24.8---
2024-02-22 08:00 am SW 3.9 9.7----30.12-0.04 32.5 39.6 25.0---
2024-02-22 07:50 amWSW 1.9 3.9 2.6 64.6 E30.11- 32.7 39.6 25.0---
2024-02-22 07:40 am W 1.9 3.9----30.11- 32.4 39.6 24.8---
2024-02-22 07:30 am W 1.9 5.8----30.12- 32.4 39.7 25.0---
2024-02-22 07:20 am W 3.9 5.8 2.6 64.8 E30.12- 32.4 39.7 24.8---
2024-02-22 07:10 am W 1.9 5.8----30.12- 32.5 39.7 25.0---
2024-02-22 07:00 amWSW 1.9 5.8----30.12-0.05 32.5 39.7 24.3---
2024-02-22 06:50 am SE 1.9 3.9 3.0 64.9ESE30.13- 32.4 39.7 23.5---
2024-02-22 06:40 am SW 3.9 9.7----30.14- 32.4 39.7 23.5---
2024-02-22 06:30 am SW 3.9 7.8----30.14- 32.5 39.7 23.9---
2024-02-22 06:20 am SW 5.8 7.8 3.0 64.8ESE30.14- 32.7 39.7 24.3---
2024-02-22 06:10 amWSW 1.9 3.9 3.0-4.8ESE30.14- 32.5 39.7 24.1---
2024-02-22 06:00 am NE 3.9 5.8----30.14-0.06 32.5 39.7 24.1---
2024-02-22 05:50 am- 0.0 3.9 2.6 54.7ESE30.14- 32.4 39.7 23.9---
2024-02-22 05:40 amNNE 1.9 3.9 2.6-4.7ESE30.15- 32.5 39.7 23.9---
2024-02-22 05:30 am NW 1.9 5.8----30.15- 32.5 39.7 24.1---
2024-02-22 05:20 amWNW 3.9 5.8 2.3 64.8ESE30.16- 32.5 39.7 24.1---
2024-02-22 05:10 amWNW 3.9 5.8 2.3-4.8ESE30.16- 32.5 39.7 24.1---
2024-02-22 05:00 amWNW 1.9 3.9----30.16-0.07 32.4 39.7 23.7---
2024-02-22 04:50 amNNW 1.9 3.9 2.3 64.7ESE30.16- 32.4 39.7 23.5---
2024-02-22 04:40 amNNE 1.9 3.9----30.16- 32.4 39.7 23.7---
2024-02-22 04:30 am- 0.0 3.9----30.16- 32.2 39.7 23.4---
2024-02-22 04:20 am E 3.9 7.8 2.3 64.6ESE30.17- 32.4 39.7 23.5---
2024-02-22 04:10 amENE 3.9 7.8 2.3-4.6ESE30.17- 32.4 39.7 23.5---
2024-02-22 04:00 amNNE 1.9 3.9----30.18-0.07 32.4 39.7 23.2---
2024-02-22 03:50 amWNW 1.9 5.8 2.0 64.6ESE30.18- 32.4 39.7 23.4---
2024-02-22 03:40 amWNW 1.9 3.9----30.19- 32.4 39.7 23.2---
2024-02-22 03:30 am N 1.9 5.8----30.19- 32.5 39.7 23.7---
2024-02-22 03:20 am N 3.9 7.8 2.0 64.3ESE30.19- 32.5 39.7 23.5---
2024-02-22 03:10 am NW 3.9 7.8 2.0-4.3ESE30.20- 32.5 39.7 23.5---
2024-02-22 03:00 am NW 1.9 3.9----30.20-0.06 32.5 39.7 23.4---
2024-02-22 02:50 am- 0.0 3.9 1.6 64.2ESE30.21- 32.5- 23.2---
2024-02-22 02:40 amSSE 1.9 5.8 1.6-4.2ESE30.21- 32.7 39.7 23.7---
2024-02-22 02:30 am SE 1.9 3.9----30.22- 32.7 39.7 23.9---
2024-02-22 02:20 amESE 1.9 3.9 1.6 54.1ESE30.22- 32.7 39.7 23.9---
2024-02-22 02:10 am E 1.9 3.9 1.6-4.1ESE30.23- 32.7 39.7 23.9---
2024-02-22 02:00 am- 0.0 0.0----30.23-0.06 32.5 39.7 23.5---
2024-02-22 01:50 am- 0.0 1.9 1.6 53.9ESE30.24- 32.5 39.7 23.2---

Detailed Wave Summary
for 44013 as of (1:40 am EST)
0640 GMT on 02/23/2024:

These wave data are displayed in rounded times.

     

Click on the graph icon in the table below to see a time series plot of the last five days of that observation.

5-day plot - Significant Wave Height Significant Wave Height (WVHT): 5.6 ft
5-day plot - Swell Height Swell Height (SwH): 5.2 ft
5-day plot - Swell Period Swell Period (SwP): 12.1 sec
5-day plot - Swell Direction Swell Direction (SwD): E
5-day plot - Wind Wave Height Wind Wave Height (WWH): 2.0 ft
5-day plot - Wind Wave Period Wind Wave Period (WWP): 2.7 sec
5-day plot - Wind Wave Direction Wind Wave Direction (WWD):SSW
5-day plot - Wave Steepness Wave Steepness (STEEPNESS): SWELL
5-day plot - Average Wave Period Average Wave Period (APD): 6.5 sec
Previous observations
TIME
(EST)
5-day plot - Wave Height
WVHT
ft
5-day plot - Swell Height
SwH
ft
5-day plot - Swell Period
SwP
sec
5-day plot - Swell Direction
SwD
 
5-day plot - Wind Wave Height
WWH
ft
5-day plot - Wind Wave Period
WWP
sec
5-day plot - Wind Wave Direction
WWD
 
5-day plot - Wave Steepness
STEEPNESS
 
5-day plot - Average Wave Period
APD
sec
2024-02-23 01:10 am 5.9 5.2 12.9 E 2.3 2.7 SSW SWELL 6.5
2024-02-23 12:40 am 5.6 5.2 12.1 E 2.0 2.6 SW SWELL 6.3
2024-02-23 12:10 am 5.2 4.9 10.0 E 2.0 2.6 SW SWELL 6.3
2024-02-22 11:40 pm 5.2 4.9 10.8 E 2.0 3.6 SSE SWELL 6.3
2024-02-22 11:10 pm 5.2 4.6 10.8 E 2.0 3.1 SSE SWELL 6.1
2024-02-22 10:40 pm 5.6 5.2 10.0 E 2.3 3.3 SSE SWELL 6.2
2024-02-22 10:10 pm 5.2 4.6 11.4ENE 2.3 2.9 SSE SWELL 6.1
2024-02-22 09:40 pm 5.6 4.9 11.4 E 2.3 3.6 SSE SWELL 6.1
2024-02-22 09:10 pm 5.6 4.9 9.1 E 2.6 3.7 SE AVERAGE 5.9
2024-02-22 08:40 pm 5.6 4.9 10.8 E 2.6 3.8 SE SWELL 5.9
2024-02-22 08:10 pm 5.9 5.2 12.1 E 3.0 4.0 SE SWELL 6.1
2024-02-22 07:40 pm 5.6 4.6 12.1 E 3.0 3.8 SSE SWELL 5.5
2024-02-22 07:10 pm 5.2 4.6 11.4ESE 2.6 5.6 E SWELL 5.6
2024-02-22 06:40 pm 4.6 3.6 10.0 E 2.6 5.3 E SWELL 5.4
2024-02-22 06:10 pm 5.2 4.6 10.0 E 2.6 3.7 SE SWELL 5.7
2024-02-22 05:40 pm 4.9 3.9 10.0 E 2.6 3.4 SSE SWELL 5.3
2024-02-22 05:10 pm 4.6 3.9 10.0 E 2.6 3.3 SSE SWELL 5.2
2024-02-22 04:40 pm 4.6 3.9 10.8 E 3.0 3.3 SE SWELL 5.0
2024-02-22 04:10 pm 4.6 3.6 11.4 E 2.6 5.3 E SWELL 5.1
2024-02-22 03:40 pm 4.6 3.6 7.7ESE 2.6 3.1 SSE AVERAGE 5.0
2024-02-22 03:10 pm 3.9 3.3 7.7 E 2.0 2.9 SSE AVERAGE 5.0
2024-02-22 02:40 pm 3.9 3.6 8.3ESE 1.6 2.6 SSE AVERAGE 5.3
2024-02-22 02:10 pm 3.6 3.3 9.1 E 1.3 4.5 ENE SWELL 5.5
2024-02-22 01:40 pm 3.3 3.0 13.8ENE 1.3 5.0 E SWELL 5.5
2024-02-22 01:10 pm 3.3 3.3 7.7 E 1.0 4.0 ENE AVERAGE 6.0
2024-02-22 12:40 pm 3.0 3.0 6.7 E 1.0 4.0 ENE AVERAGE 6.0
2024-02-22 12:10 pm 2.6 2.6 6.2 E 1.0 4.0 E AVERAGE 5.7
2024-02-22 11:40 am 3.0 2.6 5.9 E 1.0 3.7 ENE STEEP 5.6
2024-02-22 11:10 am 2.6 2.3 5.9ESE 1.0 3.7 ENE N/A 5.2
2024-02-22 10:40 am 3.0 2.6 5.6 E 1.0 4.0 E STEEP 5.1
2024-02-22 10:10 am 2.6 2.6 5.9 E 1.0 3.4 E STEEP 5.0
2024-02-22 09:40 am 2.6 2.3 5.9 E 1.0 3.7 E STEEP 5.0
2024-02-22 09:10 am 2.6 2.3 5.9 E 1.0 3.3 E STEEP 4.9
2024-02-22 08:40 am 2.6 2.3 5.6 E 1.0 3.8 E N/A 4.7
2024-02-22 08:10 am 2.6 2.6 5.9 E 1.0 3.7 E STEEP 4.9
2024-02-22 07:40 am 2.6 2.3 5.9 E 1.0 3.3 E STEEP 4.6
2024-02-22 07:10 am 2.6 2.3 5.6 E 1.0 4.0 E STEEP 4.8
2024-02-22 06:40 am 3.0 2.6 5.9ESE 1.0 3.8 E STEEP 4.9
2024-02-22 06:10 am 3.0 2.6 5.9ESE 1.0 4.0 E STEEP 4.8
2024-02-22 05:40 am 2.6 2.3 5.3ESE 1.0 3.6 E N/A 4.7
2024-02-22 05:10 am 2.3 2.3 5.6ESE 1.0 3.8 E N/A 4.8
2024-02-22 04:40 am 2.3 2.0 5.9ESE 1.0 3.8 ENE N/A 4.7
2024-02-22 04:10 am 2.3 2.0 5.9ESE 1.0 3.8 ENE N/A 4.6
2024-02-22 03:40 am 2.0 2.0 6.2ESE 1.0 3.7 E N/A 4.6
2024-02-22 03:10 am 2.0 1.6 5.6ESE 1.0 4.0 ENE N/A 4.3
2024-02-22 02:40 am 1.6 1.3 5.6ESE 1.0 4.0 ENE N/A 4.2
2024-02-22 02:10 am 1.6 1.3 5.0ESE 1.0 3.7 E N/A 4.1

Plot of wave energy versus frequency (and period)